OSCAR 7 1 07530U 74089B 26120.01665123 -.00000027 00000-0 12169-3 0 9990 2 07530 101.9927 132.7575 0011990 221.7394 162.4256 12.53697371354488 OSCAR 11 (UOSAT 2) 1 14781U 84021B 26120.16137282 .00001345 00000-0 14286-3 0 9994 2 14781 97.8025 86.2877 0007390 355.3219 4.7929 14.90666755249970 OSCAR 19 (LUSAT) 1 20442U 90005G 26120.04134383 .00000143 00000-0 67991-4 0 9997 2 20442 98.8881 140.5133 0011370 353.1881 6.9147 14.34107736895492 EYESAT A 1 22825U 93061C 26120.17169763 .00000108 00000-0 58298-4 0 9994 2 22825 98.6901 187.5968 0007438 236.7965 123.2505 14.30928863700131 ITAMSAT 1 22826U 93061D 26120.16539749 .00000107 00000-0 57413-4 0 9996 2 22826 98.6848 187.5030 0008164 218.7635 141.2963 14.31354400700446 RADIO ROSTO 1 23439U 94085A 26120.13518873 -.00000034 00000-0 25175-3 0 9995 2 23439 64.8209 20.9298 0154584 12.6292 347.8438 11.27583831290480 JAS 2 1 24278U 96046B 26120.17852378 .00000011 00000-0 48119-4 0 9999 2 24278 98.5296 335.6115 0349170 220.8988 136.5474 13.53271933466675 TECHSAT 1B 1 25397U 98043D 26119.94777602 .00000069 00000-0 49825-4 0 9998 2 25397 99.0062 111.4935 0001632 36.6482 323.4807 14.24418684444460 ISS (ZARYA) 1 25544U 98067A 26120.19993199 .00006779 00000-0 13091-3 0 9997 2 25544 51.6316 177.6251 0007128 6.6336 353.4746 15.49030629564315 PCSAT 1 26931U 01043C 26120.10536459 .00000161 00000-0 90964-4 0 9993 2 26931 67.0526 8.6328 0006468 264.0339 96.0026 14.31937006283568 SAUDISAT 1C 1 27607U 02058C 26119.60224970 .00001351 00000-0 17631-3 0 9997 2 27607 64.5517 279.2922 0075609 271.2999 87.9446 14.82938270257254 CUTE-1 1 27844U 03031E 26119.98704059 .00000329 00000-0 16137-3 0 9998 2 27844 98.6755 129.1503 0008903 332.3520 27.7184 14.24305121184810 CUBESAT XI 4 1 27848U 03031J 26120.30281922 .00000267 00000-0 13661-3 0 9999 2 27848 98.6786 129.2134 0009159 350.7538 9.3470 14.23594498184568 MOZHAYETS 4 1 27939U 03042A 26120.27910015 .00000581 00000-0 97912-4 0 9991 2 27939 98.3466 303.2878 0012479 63.3658 57.6904 14.73378675208498 CUBESAT XI 5 1 28895U 05043F 26119.41107853 .00001580 00000-0 25690-3 0 9991 2 28895 98.2927 274.0282 0014037 5.7817 354.3549 14.72500443 94577 CUTE-1.7+APD 2 1 32785U 08021C 26120.24667169 .00005002 00000-0 32046-3 0 9993 2 32785 97.8249 100.6938 0008806 180.5984 179.5235 15.08989463977963 SEEDS 1 32791U 08021J 26119.53678457 .00018228 00000-0 60903-3 0 9999 2 32791 97.7522 115.1790 0005058 109.8166 250.3620 15.31067463979840 YUBELEINY 1 32953U 08025A 26120.21400322 -.00000031 00000-0 -29267-3 0 9997 2 32953 82.5081 25.2778 0020594 56.9481 303.3574 12.43177482813738 KKS-1 (KISEKI) 1 33499U 09002H 26120.21856848 .00001503 00000-0 19168-3 0 9999 2 33499 98.1195 41.9056 0009349 86.2126 274.0155 14.82996754929085 SWISSCUBE 1 35932U 09051B 26120.27490478 .00001128 00000-0 23286-3 0 9995 2 35932 98.4066 27.3258 0007131 13.2189 346.9197 14.62386004882157 BEESAT 1 35933U 09051C 26120.25965324 .00000933 00000-0 19747-3 0 9991 2 35933 98.3995 27.0453 0005916 28.7361 331.4164 14.61639513882185 ITUPSAT 1 1 35935U 09051E 26120.27721315 .00000867 00000-0 18924-3 0 9997 2 35935 98.4079 26.3052 0008283 35.5769 324.5981 14.60366036881743 XIWANG-1 (HOPE-1) 1 36122U 09072B 26120.28843941 .00000313 00000-0 93498-3 0 9995 2 36122 100.3989 74.8934 0007497 348.6503 11.4440 13.16439917786703 TISAT 1 1 36799U 10035E 26120.26730114 .00022796 00000-0 78928-3 0 9991 2 36799 98.0691 62.6468 0004404 74.6352 285.5373 15.29870265860372 JUGNU 1 37839U 11058B 26120.04104918 .00000474 00000-0 10803-3 0 9993 2 37839 19.9605 240.9314 0018448 265.0792 264.5274 14.13762172752201 SRMSAT 1 37841U 11058D 26120.02638208 .00000433 00000-0 91075-4 0 9994 2 37841 19.9736 350.9773 0011736 34.5595 110.2601 14.11564291751001 HORYU 2 1 38340U 12025D 26120.25285266 .00003904 00000-0 40310-3 0 9992 2 38340 98.2104 251.2585 0007531 348.1338 11.9700 14.90775148741587 STRAND 1 1 39090U 13009E 26119.45953906 .00000321 00000-0 12247-3 0 9999 2 39090 98.3914 300.8957 0009055 24.5509 335.6107 14.37133735690066 CUBEBUG 1 1 39153U 13018D 26120.24756274 .00004221 00000-0 37204-3 0 9990 2 39153 98.1609 278.0783 0010203 310.5507 49.4824 14.96996580703893 ZACUBE 1 39417U 13066B 26119.87617661 .00005751 00000-0 44875-3 0 9990 2 39417 97.8124 81.9531 0043751 55.0204 305.5115 15.00788638673484 TRITON 1 1 39427U 13066M 26120.27783920 .00002520 00000-0 30602-3 0 9993 2 39427 97.8277 31.1780 0091353 31.3081 329.3526 14.81473966666999 GOMX 1 1 39430U 13066Q 26120.24441483 .00001507 00000-0 23349-3 0 9993 2 39430 97.6519 323.7277 0127683 231.1402 127.8357 14.69274148662877 CUBEBUG 2 1 39440U 13066AA 26120.29569903 .00002628 00000-0 24794-3 0 9997 2 39440 97.8881 69.0958 0057696 184.6601 175.4089 14.93418718669842 FUNCUBE 1 1 39444U 13066AE 26119.85397480 .00010286 00000-0 64730-3 0 9993 2 39444 97.8250 90.3239 0037122 11.3882 348.8178 15.08818068672370 UWE-3 1 39446U 13066AG 26119.34844746 .00004294 00000-0 37238-3 0 9996 2 39446 97.8662 75.1211 0050947 121.5611 239.0600 14.96614316670278 UNISAT 6 1 40012U 14033C 26119.98842656 .00003691 00000-0 40149-3 0 9995 2 40012 97.7815 273.5748 0044309 226.0181 133.7379 14.87958694638991 DUCHIFAT 1 1 40021U 14033M 26120.11081618 .00081743 00000-0 11439-2 0 9998 2 40021 98.0526 172.8560 0004626 220.2284 139.8628 15.56524933648251 QB50P1 1 40025U 14033R 26119.96026907 .00010084 00000-0 50609-3 0 9996 2 40025 98.0980 127.7514 0009775 40.9513 319.2451 15.17494028645713 OBJECT G 1 40905U 15049G 26120.27221177 .00038419 00000-0 42583-3 0 9997 2 40905 97.4611 161.5889 0005884 52.1554 308.0236 15.62860054588957 LILACSAT 2 1 40908U 15049K 26120.26017887 .00019706 00000-0 35427-3 0 9997 2 40908 97.4718 155.3221 0008662 74.9586 285.2623 15.49855281588321 LQSAT 1 40958U 15057A 26120.23304899 .00000888 00000-0 13332-3 0 9992 2 40958 97.6675 115.9880 0018591 69.3889 290.9314 14.76722107568236 CHUBUSAT 2 1 41338U 16012B 26119.83374852 .00006589 00000-0 28945-3 0 9997 2 41338 30.9986 278.5833 0008753 305.3481 54.6341 15.20392521561059 CHUBUSAT 3 1 41339U 16012C 26119.88689186 .00004952 00000-0 23108-3 0 9990 2 41339 31.0047 286.6863 0009079 294.1863 65.7828 15.18155084560852 PRATHAM 1 41783U 16059A 26119.95814953 .00000887 00000-0 16499-3 0 9992 2 41783 97.8324 118.9385 0031662 15.0267 345.1871 14.67127744512440 ALSAT 1N 1 41789U 16059G 26120.23964154 .00000925 00000-0 16431-3 0 9999 2 41789 97.8017 125.7273 0025671 344.8154 15.2279 14.69227226512960